Regional Weather Roundup
Issued by NWS

Home | Current Version | Previous Version | Graphics & Text | Print | Product List | Glossary Off
Versions: 1 2 3 4 5 6 7 8 9 10 11 12 13 14 15 16 17 18 19 20 21 22 23 24 25 26 27 28 29 30 31 32 33 34 35 36 37 38 39 40 41 42 43 44 45 46 47 48 49 50

000
ASUS43 KMKX 010211
RWRWI

WISCONSIN REGIONAL WEATHER ROUNDUP
NATIONAL WEATHER SERVICE MILWAUKEE/SULLIVAN WI
800 PM CST SAT JAN 31 2015

NOTE: "FAIR" INDICATES FEW OR NO CLOUDS BELOW 12,000 FEET WITH NO
SIGNIFICANT WEATHER AND/OR OBSTRUCTIONS TO VISIBILITY.

WIZ001-002-006>008-014>016-023>028-010300-
NORTHWEST WISCONSIN

CITY           SKY/WX    TMP DP  RH WIND       PRES   REMARKS
SUPERIOR ARPT  MOCLDY    14   1  56 NE12G20   30.34S WCI   0
ASHLAND        CLOUDY    15   5  64 N10       30.32F WCI   2
HAYWARD        MOCLDY    14   4  64 NE10      30.26F WCI   1
SIREN          CLOUDY    19   7  58 NE9G18    30.26R WCI   8
CUMBERLAND     CLOUDY    19   9  63 E17       30.22R WCI   4
RICE LAKE      CLOUDY    20  10  63 NE15G21   30.24R WCI   7
CHETEK         CLOUDY    20  10  66 NE9       30.23S WCI   9
LADYSMITH      CLOUDY    18   9  69 NE12      30.24F WCI   5
EAU CLAIRE     CLOUDY    24  13  62 NE15      30.20S WCI  11
MENOMONIE      CLOUDY    25  15  64 NE10G21   30.21R WCI  15
NEW RICHMOND   CLOUDY    24  14  65 NE9       30.21S WCI  14
OSCEOLA        CLOUDY    24  10  56 NE15      30.25S WCI  11
$$

WIZ003>005-009-010-017-018-010300-
NORTH CENTRAL WISCONSIN

CITY           SKY/WX    TMP DP  RH WIND       PRES   REMARKS
MANITOWISH WTR CLOUDY    11   4  72 NE8       30.23S WCI  -1
ARBOR VITAE    CLOUDY    14   5  68 NE8       30.22F WCI   3
WOODRUFF       CLOUDY    14   5  68 NE8       30.22F WCI   3
RHINELANDER    MOCLDY    13   5  70 NE5       30.22S WCI   5
EAGLE RIVER    MOCLDY    12   4  70 NE12      30.22S WCI  -2
LAND O LAKES   CLOUDY    12   6  77 NE5       30.24S WCI   4
PHILLIPS       CLOUDY    13   7  75 NE8       30.22S WCI   2
TOMAHAWK       CLOUDY    16   8  71 NE8       30.22R WCI   5
MEDFORD        CLOUDY    18  10  71 NE12      30.18S WCI   6
MERRILL        CLOUDY    19  11  69 E9        30.22R WCI   8
$$

WIZ029-030-035-036-043>047-010300-
CENTRAL WISCONSIN

CITY           SKY/WX    TMP DP  RH WIND       PRES   REMARKS
WAUSAU         CLOUDY    23  13  65 NE8       30.19R WCI  14
MOSINEE        CLOUDY    25  21  86 N6        30.19S WCI  18
MARSHFIELD     CLOUDY    24  16  71 NE9       30.18S WCI  14
STEVENS POINT  CLOUDY    24  17  74 NE8       30.19F WCI  14
WAUPACA        CLOUDY    29  20  67 NE3       30.21S
WAUTOMA        CLOUDY    27  21  77 E5        30.20F WCI  22
WISC RAPIDS    CLOUDY    26  17  68 NE8       30.20S WCI  18
CAMP DOUGLAS   CLOUDY    28  24  86 NE7       30.17F WCI  20
$$

WIZ011>013-019>022-031-037>040-048>050-010300-
NORTHEAST WISCONSIN

CITY           SKY/WX    TMP DP  RH WIND       PRES   REMARKS
ANTIGO         CLOUDY    17  11  76 NE12      30.20R WCI   4
SHAWANO        CLOUDY    28  18  67 NE7       30.24R WCI  20
OCONTO         CLOUDY    21  14  72 CALM      30.27R
STURGEON BAY   CLOUDY    19   9  63 NE16G23   30.29R WCI   5
GREEN BAY      CLOUDY    23  16  74 NE21      30.25R WCI   8
MANITOWOC      CLOUDY    27  20  75 NE6       30.23S WCI  20
APPLETON       CLOUDY    27  18  69 E7        30.21S WCI  19
CLINTONVILLE   CLOUDY    28  19  69 E9        30.22S WCI  20
OSHKOSH        CLOUDY    27  19  72 E6        30.21S WCI  20
$$

WIZ032>034-041-042-053>061-010300-
SOUTHWEST WISCONSIN

CITY           SKY/WX    TMP DP  RH WIND       PRES   REMARKS
LA CROSSE      CLOUDY    30  20  66 NE7       30.17  WCI  23
SPARTA         CLOUDY    28  20  73 NE8       30.18S WCI  20
VIROQUA        CLOUDY    28  24  87 E9        30.13R WCI  19
BOSCOBEL       LGT SNOW  30  27  88 NE7       30.15S VSB 1   WCI  23
PRAIRIE DU CHI MIX PCPN  31  28  88 NE7       30.13F WCI  24
PLATTEVILLE    CLOUDY    31  29  94 NE9       30.11F WCI  22
$$

WIZ056-057-062-063-064-067-068-010300-
SOUTH CENTRAL WISCONSIN

CITY           SKY/WX    TMP DP  RH WIND       PRES   REMARKS
REEDSBURG      CLOUDY    28  22  79 NE9       30.15F WCI  19
BARABOO/DELLS  CLOUDY    28  21  77 NE10      30.15F WCI  18
LONE ROCK      LGT SNOW  29  25  85 E7        30.16S FOG     WCI  22
MINERAL POINT  LGT SNOW  32  30  93 E6        30.12S WCI  26
MADISON        LGT SNOW  28  22  78 NE13      30.16F WCI  17
MIDDLETON      CLOUDY    30  25  80 E13       30.16S WCI  20
WATERTOWN      CLOUDY    28  22  78 NE7       30.16F WCI  21
MONROE         LGT SNOW  30  28  93 E6        30.13S WCI  24
JANESVILLE     LGT SNOW  32  27  80 E8        30.15S WCI  25
$$

WIZ051-052-058>065-066-070>072-010300-
SOUTHEAST WISCONSIN

CITY           SKY/WX    TMP DP  RH WIND       PRES   REMARKS
MILWAUKEE      CLOUDY    31  23  72 NE10      30.19S WCI  22
WAUKESHA       CLOUDY    27  21  80 NE8G18    30.19R WCI  18
MILWAUKEE/TIMM CLOUDY    28  23  80 NE12      30.20S WCI  18
RACINE         CLOUDY    32  24  72 NE10      30.20S WCI  24
BURLINGTON     CLOUDY    29  23  78 E6        30.17S WCI  23
KENOSHA        CLOUDY    32  25  75 NE9       30.17F WCI  24
FOND DU LAC    CLOUDY    27  19  72 E8        30.21S WCI  19
SHEBOYGAN      CLOUDY    27  19  72 N6        30.22S WCI  20
WEST BEND      CLOUDY    27  21  80 NE8       30.20R WCI  18
JUNEAU         CLOUDY    26  21  82 NE8       30.19S WCI  18
$$

LSZ147-162-010300-
LAKE SUPERIOR

STATION/POSITION TIME  TEMP    WIND        PRES    WAVE
                       AIR SEA DIR/SP/G            HT/PER
                 (UTC) (F)     (DEG/KT/KT) (MB)    (FT/S)
DEVILS ISLAND    0200   16      20/ 20/ 25 1029.4F
PORT WING        0140   18      40/ 21/ 23 1027.4R
SAXON HARBOR     0100   19      50/ 15/ 19 1027.1R
$$

LMZ867-665-643>646-010300-
LAKE MICHIGAN

STATION/POSITION TIME  TEMP    WIND        PRES    WAVE
                       AIR SEA DIR/SP/G            HT/PER
                 (UTC) (F)     (DEG/KT/KT) (MB)    (FT/S)
NORTHPORT PIER   0116   19     360/ 20/ 25 1025.4S
SISTER BAY       0128   18      20/ 14/ 19   N/A
KEWAUNEE LAKESHO 0100   27      30/ 15/ 21 1022.8R
SHEBOYGAN LAKESH 0200   29      20/ 15/ 17 1024.4F
PORT WASHINGTON  0100   29      30/  9/ 13 1023.7
MILWAUKEE LAKESH 0100   31      40/ 12/ 14   N/A
KENOSHA   LAKESH 0200   32      50/ 11/ 13 1021.7F
$$

TC  - TEMPERATURE IN CELSIUS
VSB - VISIBILITY IN STATUTE MILES
WCI - WIND CHILL INDEX
HX  - HEAT INDEX




USA.gov is the U.S. government's official web portal to all federal, state and local government web resources and services.